Presure
141 189 210 209 196 194 186 181 180 199 199 215 169 135 135 194 140 135 136 140 139 143 144 141 141 140 139 144 143 143 148 204 157 208 208 221 232 226 228 231 234 240 257 239
197 187 201 215 185 186 197 185 186 186 198 204 207 208 203 204 187 168 190 151 147 142 142 143 157 161 160 195 211 212 210 205 216 203 205 226 244 237 235 261 256 234 216 215
176 216 181 217 204 191 182 180 202 185 184 193 198 194 195 197 203 202 202 204 201 193 205 203 191 190 194 197 204 204 211 211 211 248 259 257 215 267 250 220 207 223 251 308
171 187 220 213 211 206 209 199 188 196 169 182 185 181 196 203 202 204 208 198 198 201 193 190 188 191 190 204 199 207 215 238 274 263 273 259 241 207 225 219 227 304 271 258
150 186 191 170 217 207 197 207 185 184 192 191 198 180 182 189 194 193 193 190 186 182 180 197 190 194 202 210 220 233 266 267 269 249 204 209 223 208 322 285 263 251 244 281
360 196 180 197 211 221 201 200 197 198 184 180 185 186 185 182 184 188 179 180 182 205 194 194 202 213 222 230 248 271 241 195 193 211 211 219 311 275 254 249 241 279 256 256
147 281 225 236 225 210 206 200 201 197 198 196 183 185 204 198 206 193 197 207 201 192 202 211 217 223 272 267 217 193 198 213 219 220 258 264 250 248 255 279 265 250 247 228
177 255 296 217 233 214 210 203 195 201 197 198 186 193 197 199 206 206 198 189 200 207 216 216 271 173 191 193 193 198 212 272 281 259 253 267 286 273 260 247 244 240 239 235
168 248 140 257 227 213 198 207 197 194 199 200 204 204 203 207 201 196 200 211 187 215 178 173 183 191 203 211 236 315 280 261 275 276 265 253 247 244 234 236 225 223 214 199
180 166 251 214 177 167 203 148 162 199 197 203 165 200 210 147 208 190 212 165 177 180 183 192 198 203 243 303 270 259 264 255 242 231 238 231 230 225 228 206 220 218 212 201
180 317 161 275 243 168 219 166 157 189 167 144 193 211 192 211 215 219 199 174 174 188 202 204 257 298 258 246 259 248 233 232 236 227 224 215 214 217 217 213 221 221 218 212
205 146 149 153 136 246 149 169 219 149 262 149 183 148 151 259 205 168 170 163 196 199 310 294 254 241 254 242 243 238 220 224 214 213 225 197 220 222 215 208 204 213 214 207
199 157 162 160 149 142 234 148 176 267 141 145 160 156 169 167 153 165 188 218 309 269 260 279 265 250 232 232 220 224 209 215 216 206 220 212 197 209 211 212 198 193 196 213
218 202 241 207 257 266 256 246 244 163 150 170 193 159 171 182 198 270 290 276 291 287 259 244 241 228 207 201 215 207 200 211 166 196 210 201 198 196 199 204 215 209 206 205
183 183 175 194 197 206 181 172 176 169 168 168 178 189 316 305 280 278 272 269 257 249 220 206 213 212 210 206 204 201 197 205 206 203 205 191 198 210 204 201 192 194 194 195
200 199 187 185 174 160 188 193 170 191 195 235 298 287 291 255 240 229 220 219 215 208 209 210 200 198 205 194 191 190 196 204 181 200 199 204 201 199 195 187 211 211 189 188
204 202 195 183 196 210 232 252 300 318 303 247 237 232 225 214 203 210 197 211 211 203 179 150 193 198 197 205 202 192 189 196 204 184 200 191 192 191 190 185 183 198 196 201
277 275 273 251 243 243 238 235 229 227 221 212 207 204 205 170 132 190 197 201 202 193 199 200 200 188 190 197 192 185 186 189 190 196 188 181 182 182 174 185 210 214 214 197
214 218 220 218 220 216 215 209 172 213 198 147 198 195 198 198 191 202 185 193 187 193 192 177 193 193 190 181 176 202 184 177 186 195 205 189 210 211 211 207 193 184 204 202
208 208 201 204 203 198 204 197 201 190 200 205 189 190 185 180 178 198 190 180 193 177 186 176 171 173 166 138 132 177 182 209 195 184 207 211 209 216 225 222 219 215 217 218
181 202 189 186 204 198 202 193 206 197 197 188 199 183 193 188 183 209 180 181 183 205 204 177 212 177 188 194 204 191 192 199 202 215 220 220 206 209 201 204 230 227 224 232
199 199 178 176 180 180 166 195 181 173 171 172 170 189 195 173 175 211 192 185 183 171 176 179 184 214 217 195 210 211 193 219 221 203 232 235 197 236 237 228 213 232 232 240
199 192 185 190 190 193 173 179 206 158 175 196 187 179 194 201 214 177 199 217 207 194 201 193 189 199 190 190 230 200 191 208 211 209 212 209 213 220 232 250 236 240 239 226
193 169 185 205 182 178 173 179 183 206 178 199 190 193 212 205 201 201 195 201 221 188 198 208 211 205 208 192 197 183 203 179 207 210 236 195 215 170 232 246 262 267 225 212
182 186 193 202 189 190 186 200 189 180 181 174 167 169 172 191 199 195 190 195 199 206 191 191 192 171 214 193 226 217 244 250 209 237 235 245 241 147 235 250 225 283 273 268
163 194 154 192 190 191 191 192 193 185 194 201 191 162 196 175 194 199 200 196 186 198 234 191 221 232 229 215 231 243 229 162 243 218 199 236 244 243 237 273 293 297 306 325
Wind_Speed
48 72 87 84 84 78 75 75 70 65 67 72 73 73 73 70 73 71 72 71 70 72 74 75 78 78 78 79 78 79 81 81 81 82 84 82 80 84 84 82 82 81 77 78
83 72 77 87 64 79 75 73 70 68 60 60 63 72 75 76 73 72 74 70 73 76 77 78 77 77 80 76 74 75 79 82 80 84 84 81 79 79 80 75 73 75 78 80
61 90 73 89 81 78 70 64 64 69 66 62 61 61 63 64 63 62 62 61 60 62 61 62 67 72 74 77 77 79 79 80 82 82 76 73 77 68 69 73 75 76 68 40
59 69 91 86 84 78 74 70 69 66 58 64 62 62 62 63 62 61 60 58 57 57 60 66 70 73 76 76 80 79 78 83 71 70 65 62 65 69 70 72 74 35 35 35
60 60 57 40 84 77 71 72 69 66 64 62 60 59 61 59 56 55 55 55 58 62 66 67 72 75 75 75 75 79 73 66 61 59 63 64 66 70 36 33 33 36 36 33
52 66 55 66 77 86 69 68 66 65 59 55 58 59 58 58 55 52 54 58 62 62 68 70 71 72 75 78 79 60 57 59 62 62 64 65 36 31 35 36 35 27 27 25
53 61 88 92 85 73 70 65 63 60 60 60 57 57 60 57 58 54 56 59 61 62 67 69 70 76 65 57 58 58 60 63 63 62 43 32 36 35 32 20 18 24 23 30
52 58 80 74 89 75 69 65 55 57 56 59 55 56 56 55 55 56 55 56 61 65 69 68 60 60 57 58 60 63 63 48 34 35 35 29 23 17 15 20 20 21 23 24
45 51 43 88 71 66 45 67 55 53 59 61 62 58 54 57 53 53 57 63 56 68 48 56 56 56 58 59 58 28 28 30 20 15 13 15 16 17 20 20 24 27 30 42
33 43 48 55 31 45 54 37 37 58 53 57 33 54 62 42 58 55 62 47 46 48 51 54 55 56 54 25 25 24 14 12 17 22 16 19 20 24 24 37 29 29 33 41
36 53 35 50 46 35 67 24 42 52 38 28 48 60 52 57 64 68 46 45 47 50 51 54 50 24 27 27 13 15 21 22 15 19 19 30 29 26 27 30 29 30 33 38
34 41 36 29 30 47 34 29 37 32 49 37 48 39 41 40 42 43 45 45 47 49 29 27 28 28 17 16 16 15 24 19 25 29 22 41 25 24 28 35 41 38 39 42
29 32 29 28 30 33 37 34 36 33 33 37 36 39 39 42 35 41 45 45 24 25 26 19 13 12 15 15 22 19 30 27 26 35 24 30 41 38 37 38 40 43 45 48
27 28 35 27 31 30 27 26 25 35 40 34 31 41 43 43 40 32 23 22 14 13 12 11 13 12 22 30 24 27 33 31 38 39 32 36 40 44 45 46 46 48 49 52
23 21 23 20 21 16 23 26 28 32 34 36 37 37 23 19 18 14 12 10 11 8 10 19 17 20 24 26 29 31 34 35 36 38 39 44 43 42 46 50 52 55 57 59
13 13 18 18 27 29 22 24 31 29 30 25 15 13 11 8 8 8 11 8 10 16 17 19 25 27 27 33 36 39 41 38 42 44 46 44 47 49 53 53 54 55 59 58
14 15 19 25 21 17 15 15 13 12 11 13 12 10 9 11 17 12 20 13 14 20 27 34 32 32 36 35 37 43 45 47 45 50 48 54 54 58 59 59 60 65 72 72
24 23 21 21 19 20 18 16 13 12 10 12 12 12 10 18 28 19 20 21 23 27 30 32 34 36 39 40 45 48 51 53 54 54 56 57 60 62 57 66 71 69 69 68
19 21 21 18 18 14 12 10 13 3 16 22 13 16 16 17 22 20 26 28 32 33 36 39 39 41 44 48 49 54 55 57 64 65 63 67 66 68 69 70 76 72 79 80
15 15 12 11 9 10 5 8 7 14 10 7 19 21 23 25 26 21 33 35 37 39 44 45 43 44 48 57 54 59 64 60 65 71 67 70 72 77 81 79 77 78 78 77
7 2 4 7 3 9 7 12 11 16 16 20 22 29 28 32 34 28 35 40 43 39 40 49 47 56 55 60 64 66 68 69 67 73 77 80 77 79 82 81 90 86 83 89
5 8 12 14 15 18 24 19 25 26 28 30 33 34 36 40 41 36 39 43 43 50 53 56 58 54 55 59 60 67 68 75 80 72 91 91 82 95 95 91 82 93 91 97
9 12 17 18 18 21 29 30 27 33 38 34 35 46 37 39 39 49 44 47 46 52 51 53 56 55 58 61 77 62 71 73 78 74 80 79 84 87 92 97 94 98 92 82
20 25 19 24 29 32 37 38 40 36 43 38 45 41 47 47 49 49 48 54 65 57 53 63 66 65 70 69 75 74 77 79 79 82 89 87 86 65 90 96 100 105 93 87
29 31 23 37 29 33 38 45 39 45 46 51 50 54 56 48 54 54 54 54 64 70 59 70 64 63 77 75 84 84 89 92 88 88 91 96 93 57 93 97 89 106 104 103
34 40 33 39 40 43 47 49 52 52 60 62 60 48 63 63 61 67 68 60 62 66 84 70 83 88 87 77 85 94 87 57 98 84 75 91 95 94 97 102 104 103 103 103
Wind_Direction
215 219 222 223 222 224 226 232 236 228 231 232 238 240 242 250 246 248 251 255 258 261 262 262 263 264 266 269 270 271 273 281 275 282 282 282 285 284 286 286 287 289 291 290
215 216 220 224 222 225 227 229 231 234 235 238 238 240 245 251 252 253 258 257 257 258 260 262 265 268 270 277 281 280 280 280 282 282 285 286 289 289 290 293 292 291 291 291
216 216 216 220 221 225 230 228 228 233 236 236 239 243 246 250 253 257 261 264 267 268 274 276 274 276 278 278 279 279 281 284 285 292 290 291 288 293 292 291 291 292 293 298
214 209 215 219 221 223 225 226 229 230 239 240 243 247 249 252 256 261 265 266 270 274 273 274 275 276 277 276 278 281 284 294 288 289 291 293 292 289 292 292 294 299 297 295
201 218 216 216 219 222 224 227 230 233 235 239 244 248 252 255 259 261 265 267 270 272 274 273 275 276 279 283 289 295 287 288 291 293 290 290 292 291 298 299 297 296 294 307
188 207 214 217 221 222 223 225 229 233 238 244 248 251 253 257 260 265 267 268 269 274 273 276 278 283 289 292 291 287 290 291 288 292 291 292 295 294 292 295 296 309 305 312
201 196 213 218 219 222 224 227 232 236 242 245 249 254 259 260 264 266 270 275 273 274 278 282 286 289 284 282 287 291 291 291 291 293 293 288 290 295 301 305 306 304 313 306
183 192 205 213 218 218 224 229 233 238 242 246 249 253 259 264 268 268 268 272 274 278 285 286 279 279 286 289 290 289 290 293 290 286 291 296 301 303 304 304 309 308 307 309
186 188 221 213 218 221 224 229 234 238 242 247 251 255 262 267 268 273 274 279 274 282 279 275 282 286 289 287 289 293 293 291 297 306 309 304 301 299 298 304 301 302 296 297
191 192 192 201 216 212 227 216 223 235 241 248 237 259 263 256 272 272 276 268 274 277 280 282 286 287 287 288 285 284 284 290 295 297 290 291 292 295 304 294 300 303 301 296
182 182 189 195 202 210 219 209 227 235 236 236 254 261 262 268 270 273 271 275 280 282 283 283 284 282 278 282 268 270 283 287 288 291 291 293 292 293 297 298 306 307 306 305
170 209 205 201 234 204 223 220 222 233 234 242 253 256 260 250 260 269 276 283 280 282 278 277 273 277 273 272 261 266 289 282 287 288 293 296 303 305 298 298 301 307 309 311
172 197 200 199 211 226 206 228 227 220 253 260 251 258 260 264 272 278 274 277 274 270 264 257 242 237 267 263 280 276 290 288 291 291 298 300 296 306 306 307 302 299 302 309
159 176 171 186 181 187 195 203 210 237 247 250 253 264 263 264 269 269 267 261 256 235 243 248 241 259 286 292 279 287 291 290 290 295 299 300 301 300 303 304 306 306 307 307
180 182 194 189 196 200 218 229 242 248 249 255 255 259 255 259 258 257 254 241 225 232 284 291 276 275 282 285 289 293 291 294 296 299 300 300 301 302 302 304 306 307 307 308
158 173 191 202 215 233 230 232 248 243 251 255 240 238 239 196 202 235 264 287 284 285 278 279 285 290 288 292 292 295 295 299 296 299 301 298 299 299 300 305 301 301 305 304
171 185 200 216 224 229 225 225 214 214 192 170 184 197 221 260 273 295 286 288 282 287 286 282 292 290 293 291 292 299 298 300 293 304 293 300 299 300 302 305 305 302 300 300
111 116 122 124 134 136 146 153 173 182 190 216 238 253 277 264 264 289 290 291 284 289 286 285 290 293 295 294 296 301 303 301 298 295 298 304 303 303 300 303 298 299 299 299
118 123 129 137 145 157 164 197 230 169 244 255 276 276 287 290 297 290 288 292 296 294 295 299 292 291 294 303 303 282 302 307 302 296 295 301 294 295 295 294 297 303 298 297
138 151 176 175 191 213 200 247 256 275 276 271 286 292 289 288 289 275 294 298 294 298 299 298 294 296 295 289 295 300 297 295 291 299 297 298 296 302 303 301 298 297 299 295
205 145 289 276 264 283 257 290 273 277 264 281 268 283 278 274 285 272 284 288 289 285 281 291 284 297 297 286 290 286 289 291 294 301 302 301 293 295 297 293 300 299 298 301
256 316 284 285 293 287 261 283 285 287 287 291 292 276 274 294 292 290 290 291 290 293 290 287 285 298 297 286 297 300 287 306 304 294 301 301 293 300 299 297 295 298 299 299
308 284 284 256 262 284 282 286 289 274 280 276 286 280 277 296 302 287 296 303 304 285 296 283 286 294 286 288 304 292 290 300 302 293 300 295 299 301 302 297 299 298 297 295
306 282 261 314 251 272 283 273 265 308 280 291 269 281 303 301 291 303 292 302 301 281 294 303 305 306 305 291 299 293 294 298 293 297 299 295 296 303 299 301 298 295 296 295
268 286 283 313 269 282 286 309 278 286 269 277 287 287 286 286 298 294 283 294 301 304 296 300 299 297 300 296 301 303 306 307 300 303 301 302 300 302 298 301 292 294 293 294
284 306 288 301 294 298 299 299 290 282 302 298 295 284 299 292 298 301 301 301 290 297 299 298 304 305 305 302 308 309 304 302 306 297 300 299 300 301 299 300 297 295 295 296